This demonstration page uses our WeatherBlox Daily Observations layout. Learn more.

Hourly Observations for October 7, 2019

Temp ( °F °C ) Dew Point ( °F °C ) Humidity (%) Winds ( mph kmh ) Pressure ( in mb ) Visibility ( mi km ) Precip ( " mm )
12:15 am 00:15 Clear 43 6 37 2.5 78 78 Calm 30.33 1027 10 16.09344 0 0
12:35 am 00:35 Clear 42 5.6 36 2.2 79 79 Calm 30.33 1027 10 16.09344 0 0
12:55 am 00:55 Clear 39 4.1 35 1.9 86 86 Calm 30.36 1028 10 16.09344 0 0
1:15 am 01:15 Clear 41 5 36 2.3 83 83 Calm 30.36 1028 10 16.09344 0 0
1:35 am 01:35 Clear 39 3.7 36 2 89 89 Calm 30.36 1028 10 16.09344 0 0
1:55 am 01:55 Clear 40 4.5 37 2.5 87 87 W 3 6 30.36 1028 10 16.09344 0 0
2:15 am 02:15 Clear 43 6 35 1.9 75 75 W 5 7 30.33 1027 10 16.09344 0 0
2:35 am 02:35 Clear 43 6 35 1.6 74 74 W 5 7 30.33 1027 10 16.09344 0 0
2:55 am 02:55 Clear 43 6.1 35 1.8 74 74 W 7 11 30.33 1027 10 16.09344 0 0
3:15 am 03:15 Clear 43 6.3 36 2.2 75 75 W 6 9 30.33 1027 10 16.09344 0 0
3:35 am 03:35 Clear 44 6.5 37 2.5 76 76 W 6 9 30.33 1027 10 16.09344 0 0
3:55 am 03:55 Clear 44 6.6 37 2.5 75 75 W 6 9 30.33 1027 10 16.09344 0 0
4:15 am 04:15 Clear 44 6.6 37 2.5 75 75 WSW 6 9 30.33 1027 10 16.09344 0 0
4:35 am 04:35 Clear 45 7.2 37 2.7 73 73 WSW 6 9 30.33 1027 10 16.09344 0 0
4:55 am 04:55 Clear 46 7.5 37 3 73 73 WSW 7 11 30.3 1026 10 16.09344 0 0
5:15 am 05:15 Clear 46 7.9 37 3 71 71 WSW 7 11 30.3 1026 10 16.09344 0 0
5:35 am 05:35 Clear 47 8.1 38 3.1 71 71 WSW 9 15 30.3 1026 10 16.09344 0 0
5:55 am 05:55 Clear 46 7.8 37 3 72 72 WSW 7 11 30.3 1026 10 16.09344 0 0
6:15 am 06:15 Clear 45 7.1 37 2.7 74 74 WSW 7 11 30.3 1026 10 16.09344 0 0
6:35 am 06:35 Clear 45 7 37 2.7 74 74 WSW 8 13 30.3 1026 10 16.09344 0 0
6:55 am 06:55 Clear 45 7 37 2.6 74 74 W 9 15 30.3 1026 10 16.09344 0 0
7:15 am 07:15 Clear 45 7 37 2.5 73 73 WSW 8 13 30.3 1026 10 16.09344 0 0
7:35 am 07:35 Clear 45 7 37 2.5 73 73 WSW 8 13 30.3 1026 10 16.09344 0 0
7:55 am 07:55 Sunny 45 7 36 2.3 72 72 WSW 8 13 30.3 1026 10 16.09344 0 0
8:15 am 08:15 Sunny 46 7.8 37 2.5 69 69 WSW 9 15 30.3 1026 10 16.09344 0 0
8:35 am 08:35 Sunny 47 8.3 37 2.6 68 68 WSW 10 17 30.27 1025 10 16.09344 0 0
8:55 am 08:55 Sunny 48 9 37 3 66 66 WSW 8 13 30.27 1025 10 16.09344 0 0
9:15 am 09:15 Sunny 50 10 38 3.2 63 63 WSW 10 17 30.27 1025 10 16.09344 0 0
9:35 am 09:35 Sunny 52 11.1 39 3.7 61 61 WSW 6 9 30.27 1025 10 16.09344 0 0
9:55 am 09:55 Sunny 54 12.1 39 4.1 58 58 WSW 10 17 30.24 1024 10 16.09344 0 0
10:15 am 10:15 Sunny 56 13.5 40 4.6 55 55 WSW 10 17 30.24 1024 10 16.09344 0 0
10:35 am 10:35 Sunny 57 14 41 4.9 55 55 SW 9 15 30.24 1024 10 16.09344 0 0
10:55 am 10:55 Sunny 58 14.3 41 4.9 53 53 SW 9 15 30.24 1024 10 16.09344 0 0
11:15 am 11:15 Sunny 59 15.1 42 5.5 53 53 SW 12 19 30.21 1023 10 16.09344 0 0
11:35 am 11:35 Sunny 60 15.8 43 5.9 52 52 SW 12 19 30.21 1023 10 16.09344 0 0
11:55 am 11:55 Sunny 62 16.6 43 6.3 51 51 SW 10 17 30.21 1023 10 16.09344 0 0
12:15 pm 12:15 Sunny 64 17.6 43 6.2 47 47 SW 13 20 30.18 1022 10 16.09344 0 0
12:35 pm 12:35 Sunny 65 18.6 43 6.2 44 44 SW 8 13 30.15 1021 10 16.09344 0 0
12:55 pm 12:55 Sunny 67 19.4 43 5.9 41 41 SSW 13 20 30.15 1021 10 16.09344 0 0
1:15 pm 13:15 Sunny 68 20.2 41 5.2 38 38 SSW 14 22 30.12 1020 10 16.09344 0 0
1:35 pm 13:35 Sunny 69 20.5 42 5.8 38 38 SSW 12 19 30.12 1020 10 16.09344 0 0
1:55 pm 13:55 Sunny 71 21.5 40 4.7 33 33 S 15 24 30.06 1018 10 16.09344 0 0
2:15 pm 14:15 Sunny 71 21.5 39 4 32 32 SSW 15 24 30.06 1018 10 16.09344 0 0
2:35 pm 14:35 Sunny 72 22 40 4.3 32 32 SSW 13 20 30.03 1017 10 16.09344 0 0
2:55 pm 14:55 Sunny 71 21.9 38 3.3 30 30 SSW 14 22 30.03 1017 10 16.09344 0 0
3:15 pm 15:15 Sunny 72 22 36 2.1 27 27 S 20 31 30.03 1017 10 16.09344 0 0
3:35 pm 15:35 Sunny 72 22 38 3.2 29 29 S 15 24 30.03 1017 10 16.09344 0 0
3:55 pm 15:55 Sunny 72 22.1 38 3.1 29 29 S 16 26 30.03 1017 10 16.09344 0 0
4:15 pm 16:15 Sunny 72 22 37 2.6 28 28 SSW 17 28 30.03 1017 10 16.09344 0 0
4:35 pm 16:35 Sunny 71 21.9 37 3 29 29 S 18 30 30.03 1017 10 16.09344 0 0
4:55 pm 16:55 Sunny 71 21.6 38 3.1 30 30 S 17 28 30.03 1017 10 16.09344 0 0
5:15 pm 17:15 Sunny 70 21.2 37 3 30 30 S 16 26 30.03 1017 10 16.09344 0 0
5:35 pm 17:35 Sunny 70 21 39 3.8 32 32 S 16 26 30 1016 10 16.09344 0 0
5:55 pm 17:55 Sunny 69 20.5 38 3.3 32 32 S 15 24 30 1016 10 16.09344 0 0
6:15 pm 18:15 Sunny 68 20 38 3.5 34 34 S 15 24 30.03 1017 10 16.09344 0 0
6:35 pm 18:35 Sunny 66 18.9 39 3.7 37 37 S 13 20 30.03 1017 10 16.09344 0 0
6:55 pm 18:55 Sunny 64 17.6 39 3.7 40 40 S 10 17 30.03 1017 10 16.09344 0 0
7:15 pm 19:15 Clear 61 16.2 39 4.1 45 45 S 8 13 30.06 1018 10 16.09344 0 0
7:35 pm 19:35 Clear 59 15.2 40 4.2 48 48 SSE 8 13 30.06 1018 10 16.09344 0 0
7:55 pm 19:55 Clear 58 14.4 40 4.5 52 52 SSE 9 15 30.03 1017 10 16.09344 0 0
8:15 pm 20:15 Clear 57 14 40 4.6 53 53 SSE 7 11 30.03 1017 10 16.09344 0 0
8:35 pm 20:35 Clear 55 12.6 41 5 60 60 SSE 7 11 30.06 1018 10 16.09344 0 0
8:55 pm 20:55 Clear 54 12.1 41 4.8 61 61 SSE 7 11 30.06 1018 10 16.09344 0 0
9:15 pm 21:15 Clear 53 11.9 41 4.8 62 62 SSE 7 11 30.09 1019 10 16.09344 0 0
9:35 pm 21:35 Clear 53 11.8 41 4.8 62 62 S 7 11 30.06 1018 10 16.09344 0 0
9:55 pm 21:55 Clear 53 11.7 41 4.9 63 63 S 8 13 30.06 1018 10 16.09344 0 0
10:15 pm 22:15 Clear 53 11.6 41 4.8 63 63 SSE 9 15 30.06 1018 10 16.09344 0 0
10:35 pm 22:35 Clear 52 10.9 40 4.7 66 66 S 8 13 30.06 1018 10 16.09344 0 0
10:55 pm 22:55 Clear 51 10.3 40 4.7 69 69 S 8 13 30.06 1018 10 16.09344 0 0
11:15 pm 23:15 Clear 49 9.5 40 4.7 72 72 S 7 11 30.09 1019 10 16.09344 0 0
11:35 pm 23:35 Clear 49 9.5 40 4.7 72 72 S 9 15 30.09 1019 10 16.09344 0 0
11:55 pm 23:55 Clear 49 9.5 41 5 74 74 S 8 13 30.09 1019 10 16.09344 0 0

Powered by AerisWeather